This is the latest recevied weather packets stored in our database for station/object K4CRS-13. If no packets are shown the sender has not sent any weather packets the latest 10 day(s).
| Time | Temp. | Humidity | Pressure | Rain* | Wind** | Luminosity | Snow |
|---|---|---|---|---|---|---|---|
| 1788092687 | 22.78° C | 99% | 1055.6 hPa | 0 mm | - | 55 W/m² | - |
| 1788092382 | 21.67° C | 99% | 1055.8 hPa | 0 mm | - | 45 W/m² | - |
| 1788092077 | 21.67° C | 99% | 1055.6 hPa | 0 mm | - | 36 W/m² | - |
| 1788091772 | 21.11° C | 99% | 1055.7 hPa | 0 mm | - | 34 W/m² | - |
| 1788091467 | 21.11° C | 99% | 1055.4 hPa | 0 mm | - | 30 W/m² | - |
| 1788091164 | 21.11° C | 99% | 1055.5 hPa | 0 mm | - | 27 W/m² | - |
| 1788090860 | 21.11° C | 99% | 1055.4 hPa | 0 mm | - | 23 W/m² | - |
| 1788090555 | 21.11° C | 99% | 1055.5 hPa | 0 mm | - | 19 W/m² | - |
| 1788090252 | 21.11° C | 99% | 1055.3 hPa | 0 mm | - | 14 W/m² | - |
| 1788089952 | 21.11° C | 99% | 1055.3 hPa | 0 mm | - | 11 W/m² | - |
| 1788089652 | 21.11° C | 99% | 1055.2 hPa | 0 mm | - | 8 W/m² | - |
| 1788089347 | 21.11° C | 99% | 1055 hPa | 0 mm | - | 5 W/m² | - |
| 1788089043 | 20.56° C | 99% | 1054.8 hPa | 0 mm | - | 3 W/m² | - |
| 1788088739 | 20.56° C | 99% | 1054.9 hPa | 0 mm | - | 2 W/m² | - |
| 1788088434 | 20.56° C | 99% | 1055.2 hPa | 0 mm | - | 1 W/m² | - |
| 1788088129 | 20.56° C | 99% | 1055 hPa | 0 mm | - | 0 W/m² | - |
| 1788087825 | 20.56° C | 99% | 1054.9 hPa | 0 mm | - | 0 W/m² | - |
| 1788087524 | 20.56° C | 99% | 1054.7 hPa | 0 mm | - | 0 W/m² | - |
| 1788087221 | 20.56° C | 99% | 1055 hPa | 0 mm | - | 0 W/m² | - |
| 1788086917 | 21.11° C | 99% | 1054.7 hPa | 0 mm | - | 0 W/m² | - |
| 1788086613 | 20.56° C | 99% | 1054.8 hPa | 0 mm | - | 0 W/m² | - |
| 1788086312 | 20.56° C | 99% | 1054.4 hPa | 0 mm | - | 0 W/m² | - |
| 1788086009 | 20.56° C | 99% | 1054.6 hPa | 0 mm | - | 0 W/m² | - |
| 1788085706 | 21.11° C | 99% | 1054.6 hPa | 0 mm | - | 0 W/m² | - |
| 1788085402 | 21.11° C | 99% | 1054.6 hPa | 0 mm | - | 0 W/m² | - |
* Rain latest hour (hover to see other rain measurements)
** Current wind speed in m/s (hover to see current wind gust speed)